Weather History for KHLG - September, 2012

Change the Weather History Date:

Tuesday, September 18, 2012

  Actual Average Record
Temperature  
Mean Temperature 60 °F 64 °F  
Max Temperature 68 °F 74 °F 83 °F (2002)
Min Temperature 52 °F 54 °F 45 °F (1951)
Degree Days  
Heating Degree Days 5 3  
Month to date heating degree days 25 29  
Since 1 July heating degree days 25 40  
Cooling Degree Days 0    
Month to date cooling degree days 93  
Year to date cooling degree days 971  
Growing Degree Days 10 (Base 50)    
Moisture  
Dew Point 60 °F    
Average Humidity 82    
Maximum Humidity 100    
Minimum Humidity 64    
Precipitation  
Precipitation 1.06 in 0.07 in 1.06 in (2012)
Month to date precipitation 2.26 1.49  
Sea Level Pressure  
Sea Level Pressure 29.68 in    
Wind  
Wind Speed 7 mph (SW)    
Max Wind Speed 21 mph    
Max Gust Speed 33 mph    
Visibility 6 miles    
Events Rain    
T = Trace of Precipitation, MM = Missing Value Source: NWS Daily Summary

Daily Weather History Graph

Daily Weather History Graph

Search for Another Location

Airport or City:

Trip Planner

Search our weather history database for the weather conditions in past years. The results will help you decide how hot, cold, wet, or windy it might be!

Date:

Astronomy

Sep. 18, 2012 Rise Set
Actual Time 7:06 AM EDT 7:25 PM EDT
Civil Twilight 6:39 AM EDT 7:52 PM EDT
Nautical Twilight 6:07 AM EDT 8:24 PM EDT
Astronomical Twilight 5:35 AM EDT 8:57 PM EDT
Moon 10:05 AM EDT (9/18) 8:47 PM EDT (9/18)
Length of Visible Light 13h 13m
Length of Day
12h 18m
Waxing Crescent, 9% of the Moon is Illuminated
Sep 18
Waxing Crescent
Sep 22
First Quarter
Sep 29
Full
Oct 8
Last Quarter
Oct 15
New

Hourly Weather History & Observations

Time (EDT) Temp. Dew Point Humidity Pressure Visibility Wind Dir Wind Speed Gust Speed Precip Events Conditions
12:53 AM 64.9 °F 62.1 °F 90% 29.83 in 8.0 mi SSE 8.1 mph - 0.00 in Rain Light Rain
1:53 AM 64.0 °F 62.1 °F 93% 29.79 in 5.0 mi SE 8.1 mph - 0.04 in Rain Light Rain
2:48 AM 62.6 °F 62.6 °F 100% 29.77 in 6.0 mi SE 5.8 mph - 0.09 in Rain Light Rain
2:53 AM 63.0 °F 62.1 °F 97% 29.75 in 5.0 mi SE 4.6 mph - 0.10 in Rain Light Rain
3:05 AM 62.6 °F 62.6 °F 100% 29.76 in 5.0 mi SE 5.8 mph - 0.00 in Rain Light Rain
3:25 AM 62.6 °F 62.6 °F 100% 29.75 in 5.0 mi SE 4.6 mph - 0.02 in Rain Light Rain
3:48 AM 62.6 °F 62.6 °F 100% 29.73 in 4.0 mi ESE 6.9 mph - 0.06 in Rain Light Rain
3:53 AM 63.0 °F 62.1 °F 97% 29.71 in 4.0 mi ESE 6.9 mph - 0.07 in Rain Rain
4:04 AM 62.6 °F 62.6 °F 100% 29.72 in 5.0 mi ESE 5.8 mph - 0.01 in Rain Light Rain
4:15 AM 62.6 °F 62.6 °F 100% 29.71 in 4.0 mi ESE 5.8 mph - 0.03 in Rain Rain
4:53 AM 63.0 °F 62.1 °F 97% 29.66 in 4.0 mi East 5.8 mph - 0.09 in Rain Light Rain
5:02 AM 62.6 °F 62.6 °F 100% 29.67 in 2.5 mi East 6.9 mph - 0.04 in Rain Heavy Rain
5:07 AM 62.6 °F 62.6 °F 100% 29.67 in 2.5 mi East 8.1 mph - 0.07 in Rain Heavy Rain
5:11 AM 62.6 °F 62.6 °F 100% 29.66 in 3.0 mi East 8.1 mph - 0.09 in Rain Rain
5:13 AM 62.6 °F 62.6 °F 100% 29.66 in 3.0 mi East 8.1 mph - 0.10 in Rain Rain
5:20 AM 62.6 °F 62.6 °F 100% 29.65 in 4.0 mi ENE 8.1 mph - 0.11 in Rain Light Rain
5:51 AM 62.6 °F 62.6 °F 100% 29.62 in 3.0 mi ENE 10.4 mph - 0.23 in Rain Rain
5:53 AM 63.0 °F 62.1 °F 97% 29.61 in 3.0 mi ENE 9.2 mph - 0.23 in Rain Heavy Rain
6:01 AM 62.6 °F 62.6 °F 100% 29.62 in 3.0 mi ENE 6.9 mph - 0.04 in Rain Heavy Rain
6:08 AM 62.6 °F 62.6 °F 100% 29.63 in 2.5 mi East 4.6 mph - 0.11 in Rain Heavy Rain
6:30 AM 62.6 °F 62.6 °F 100% 29.62 in 2.5 mi Calm Calm - 0.25 in Rain Rain
6:33 AM 62.6 °F 62.6 °F 100% 29.62 in 3.0 mi Calm Calm - 0.26 in Rain Rain
6:45 AM 62.6 °F 62.6 °F 100% 29.61 in 3.0 mi Calm Calm - 0.30 in Rain Rain
6:53 AM 62.1 °F 61.0 °F 96% 29.60 in 5.0 mi NE 3.5 mph - 0.31 in Rain Rain
7:03 AM 62.6 °F 62.6 °F 100% 29.61 in 7.0 mi NE 3.5 mph - 0.02 in Rain Light Rain
7:12 AM 62.6 °F 60.8 °F 94% 29.60 in 7.0 mi NNE 4.6 mph - 0.03 in Rain Light Rain
7:45 AM 62.6 °F 62.6 °F 100% 29.61 in 1.8 mi Calm Calm - 0.08 in Rain Light Rain
7:53 AM 62.1 °F 61.0 °F 96% 29.60 in 2.5 mi Calm Calm - 0.09 in Rain Light Rain
8:05 AM 62.6 °F 62.6 °F 100% 29.61 in 1.2 mi Calm Calm - 0.01 in Rain Light Rain
8:17 AM 62.6 °F 62.6 °F 100% 29.61 in 1.8 mi Calm Calm - 0.02 in Rain Light Rain
8:25 AM 62.6 °F 62.6 °F 100% 29.61 in 2.5 mi Calm Calm - 0.02 in Rain Light Rain
8:32 AM 62.6 °F 62.6 °F 100% 29.61 in 3.0 mi Calm Calm - 0.02 in Rain Light Rain
8:53 AM 63.0 °F 62.1 °F 97% 29.60 in 7.0 mi SSW 5.8 mph - 0.03 in Rain Light Rain
9:04 AM 62.6 °F 62.6 °F 100% 29.62 in 10.0 mi SW 3.5 mph - 0.00 in   Overcast
9:35 AM 62.6 °F 62.6 °F 100% 29.62 in 10.0 mi SW 9.2 mph - 0.00 in Rain Light Rain
9:53 AM 64.0 °F 62.1 °F 93% 29.62 in 10.0 mi SSW 12.7 mph - 0.00 in   Overcast
10:53 AM 64.9 °F 63.0 °F 93% 29.62 in 10.0 mi SW 10.4 mph - 0.02 in   Overcast
11:21 AM 66.2 °F 64.4 °F 94% 29.63 in 10.0 mi WSW 5.8 mph - N/A   Overcast
11:53 AM 64.9 °F 62.1 °F 90% 29.62 in 7.0 mi WSW 10.4 mph 17.3 mph 0.00 in Rain Light Rain
12:23 PM 66.2 °F 64.4 °F 94% 29.63 in 10.0 mi WSW 10.4 mph - 0.00 in   Overcast
12:53 PM 66.9 °F 63.0 °F 87% 29.62 in 10.0 mi WSW 6.9 mph - 0.00 in   Overcast
1:21 PM 66.2 °F 62.6 °F 88% 29.63 in 5.0 mi West 9.2 mph - 0.02 in Rain Light Rain
1:37 PM 64.4 °F 62.6 °F 94% 29.63 in 7.0 mi SW 6.9 mph - 0.02 in Rain Light Rain
1:49 PM 64.4 °F 62.6 °F 94% 29.64 in 4.0 mi SW 8.1 mph - 0.03 in Rain Light Rain
1:51 PM 64.4 °F 62.6 °F 94% 29.64 in 5.0 mi SW 6.9 mph - 0.03 in Rain Light Rain
1:53 PM 64.9 °F 63.0 °F 93% 29.63 in 7.0 mi SW 5.8 mph - 0.03 in Rain Light Rain
2:53 PM 66.0 °F 63.0 °F 90% 29.62 in 6.0 mi SW 10.4 mph 18.4 mph 0.00 in Rain Light Rain
3:10 PM 62.6 °F 60.8 °F 94% 29.65 in 2.5 mi WNW 18.4 mph 33.4 mph 0.03 in Rain Light Rain
3:15 PM 62.6 °F 60.8 °F 94% 29.65 in 3.0 mi NW 19.6 mph 33.4 mph 0.03 in Rain Light Rain
3:17 PM 62.6 °F 60.8 °F 94% 29.66 in 3.0 mi NW 18.4 mph 33.4 mph 0.03 in Rain Light Rain
3:21 PM 62.6 °F 60.8 °F 94% 29.66 in 3.0 mi WNW 16.1 mph 28.8 mph 0.04 in Rain Light Rain
3:53 PM 62.1 °F 60.1 °F 93% 29.67 in 10.0 mi WNW 12.7 mph 20.7 mph 0.05 in   Overcast
4:01 PM 60.8 °F 59.0 °F 94% 29.68 in 10.0 mi WNW 12.7 mph 21.9 mph N/A   Overcast
4:37 PM 60.8 °F 57.2 °F 88% 29.71 in 10.0 mi WNW 16.1 mph 23.0 mph N/A   Overcast
4:53 PM 60.1 °F 55.9 °F 86% 29.73 in 10.0 mi WNW 11.5 mph 21.9 mph N/A   Overcast
5:11 PM 60.8 °F 55.4 °F 82% 29.73 in 10.0 mi WNW 9.2 mph 18.4 mph N/A   Overcast
5:21 PM 60.8 °F 55.4 °F 82% 29.74 in 10.0 mi WNW 10.4 mph - N/A   Overcast
5:53 PM 60.1 °F 53.1 °F 78% 29.75 in 10.0 mi WNW 13.8 mph 23.0 mph N/A   Overcast
6:53 PM 60.1 °F 48.9 °F 67% 29.80 in 10.0 mi NW 11.5 mph - N/A   Partly Cloudy
7:53 PM 57.9 °F 48.9 °F 72% 29.84 in 10.0 mi Calm Calm - N/A   Clear
8:53 PM 55.9 °F 48.0 °F 75% 29.87 in 10.0 mi Calm Calm - N/A   Partly Cloudy
9:53 PM 54.0 °F 50.0 °F 86% 29.89 in 10.0 mi SSW 3.5 mph - N/A   Mostly Cloudy
10:53 PM 55.0 °F 50.0 °F 83% 29.92 in 10.0 mi WNW 5.8 mph - N/A   Overcast
11:53 PM 53.1 °F 48.0 °F 83% 29.95 in 10.0 mi WNW 8.1 mph - N/A   Partly Cloudy